Regional Weather Roundup
Issued by NWS Grand Forks, ND

Home | Current Version | Previous Version | Text Only | Print | Product List | Glossary Off
Versions: 1 2 3 4 5 6 7 8 9 10 11 12 13 14 15 16 17 18 19 20 21 22 23 24 25 26 27 28 29 30 31 32 33 34 35 36 37 38 39 40 41 42 43 44 45 46 47 48 49 50

000
ASUS43 KFGF 190710
RWRFGF
PRAIRIE TO PINES  WEATHER ROUNDUP
NATIONAL WEATHER SERVICE EASTERN NORTH DAKOTA/GRAND FORKS ND
100 AM CST FRI JAN 19 2018

 **SATELLITE DATA USED TO AUGMENT SKY COVER AT AUTOMATED STATIONS**
 *****  WEATHER ACROSS EASTERN NORTH DAKOTA  *****

CITY           SKY/WX    TMP DP  RH WIND       PRES   REMARKS
GRAND FORKS    FAIR      28  25  88 S14       29.50F WCI  17
GRAND FRKS AFB FAIR      36  28  72 W12       29.49F
GRAND FRKS NWS   N/A     28 N/A N/A S7          N/A  WCI  21
DEVILS LAKE    FAIR      32  27  81 SW13      29.51F WCI  22
FARGO          FAIR      32  26  78 S12         N/A  WCI  23
WAHPETON ARPT  FAIR      32  25  74 S8        29.62F WCI  25
$$

 ***** WEATHER ACROSS CENTRAL AND WESTERN NORTH DAKOTA  *****

CITY           SKY/WX    TMP DP  RH WIND       PRES   REMARKS
BISMARCK       FAIR      30  26  85 CALM      29.58F
MINOT          FAIR      41  30  65 SW15      29.50F
JAMESTOWN      FAIR      39  29  67 SW12      29.52F
MINOT AFB      CLOUDY    39  31  72 W16       29.48F
GARRISON         N/A     29  25  85 SW5       29.56R WCI  24
WILLISTON      CLEAR     37  21  52 SW8       29.56F
DICKINSON      FAIR      36  27  69 W12       29.59R
HETTINGER      FAIR      36  26  67 CALM      29.62F
$$

 *****  OTHER AIRPORT OBSERVATIONS IN OUR AREA  *****

CITY           SKY/WX    TMP DP  RH WIND       PRES   REMARKS
WALHALLA       FAIR      39  30  70 W14G22    29.42F
GRAFTON AIRPOR FAIR      28  25  86 S9        29.49F WCI  20
VALLEY CITY AR FAIR      28  28 100 S12       29.56F WCI  18
CANDO          CLOUDY    34  30  86 W14       29.51F WCI  24
CAVALIER APRT    N/A     41  30  65 W16G24    29.42F
GWINNER          N/A     34  28  80 SW20      29.60F WCI  22
SHEYENNE NWR     N/A     32  29  87 SW7       29.95S
ROLLA          CLOUDY    34  28  80 SW13      29.45F WCI  25
 ***** THE ABOVE OBSERVATIONS ARE NON NWS ARE NOT QUALITY
       CONTROLLED AND MAY MIS-REPORT RAIN FOR SNOW...
$$

  *****  WEATHER ACROSS NORTHERN MINNESOTA  *****

CITY           SKY/WX    TMP DP  RH WIND       PRES   REMARKS
FLAG ISLAND    FAIR      21  18  86 S8        29.46S WCI  12
WARROAD        FAIR      28  25  86 SW13      29.45F WCI  18
ROSEAU         FAIR      28  25  86 S9        29.45F WCI  20
HALLOCK        FAIR      27  25  93 S17       29.46F WCI  14
THF RVR FALLS  FAIR      30  26  85 SW17      29.51F WCI  18
BAUDETTE       FAIR      26  21  81 S5        29.47F WCI  20
WASKISH        FAIR      34  23  64 SW12G21   29.50F
CROOKSTON      FAIR      28  25  86 S12       29.54F WCI  18
STEPHEN NDAWN    N/A     28  23  80 S15         N/A  WCI  17
GREENBUSH NDAW   N/A     28  25  86 S15         N/A  WCI  17
$$
  *****  WEATHER ACROSS CENTRAL AND WEST MINNESOTA  *****

CITY           SKY/WX    TMP DP  RH WIND       PRES   REMARKS
FOSSTON        FAIR      28  23  80 S15       29.56S WCI  17
BEMIDJI        FAIR      29  22  74 S6        29.55S WCI  23
PARK RAPIDS    FAIR      24  19  81 S5        29.58F WCI  18
ELBOW LAKE     FAIR      29  26  88 S7        29.64S WCI  22
WADENA         FAIR      27  23  86 CALM      29.61F
DETROIT LAKES  FAIR      32  27  80 SW7       29.61S
MOORHEAD       FAIR      32  25  74 S12       29.61S WCI  23
FERGUS FALLS   FAIR      27  23  86 S8        29.62F WCI  18
MORRIS MN      FAIR      30  27  86 S9        29.64F WCI  22
STAPLES        FAIR      25  21  86 S3        29.62F
$$
  *****  WEATHER ELSEWHERE ACROSS MINNESOTA  *****

CITY           SKY/WX    TMP DP  RH WIND       PRES   REMARKS
DULUTH         FAIR      28  22  78 SW5       29.61F WCI  23
INTRNTL FALLS  FAIR      24  21  88 SE6       29.51F WCI  17
ELY            FAIR      21  21 100 CALM      29.58F
CLOQUET        FAIR      27  21  80 SW8       29.63F WCI  18
WHEATON        FAIR      36  27  69 S10       29.65F
BRAINERD       FAIR      28  22  78 S6        29.63F WCI  22
HIBBING        FAIR      21  19  92 CALM      29.58F
ALEXANDRIA     FAIR      33  26  75 SW12      29.64F WCI  24
SAINT CLOUD    FAIR      26  24  92 S6        29.67F WCI  19
MINNEAPOLIS    CLOUDY    31  27  85 SW5       29.73F
$$

  *****  WEATHER ACROSS SOUTH DAKOTA  *****

CITY           SKY/WX    TMP DP  RH WIND       PRES   REMARKS
SIOUX FALLS    FAIR      33  28  81 S6        29.73F
BROOKINGS      FAIR      29  26  89 SE7       29.71F WCI  22
WATERTOWN      FAIR      29  27  92 S7        29.67F WCI  22
HURON          FAIR      31  27  85 SE7       29.66F WCI  24
SISSETON         N/A     45  26  47 SW10G20   29.61F
ABERDEEN       FAIR      27  24  89 S12       29.65F WCI  17
MITCHELL       FAIR      31  27  85 S8        29.70F WCI  23
PIERRE         FAIR      28  25  88 VRB5      29.64F WCI  23
MOBRIDGE       FAIR      31  25  78 SE6       29.61F
RAPID CITY     FAIR      41  27  57 CALM      29.66F
$$

  *****  SOME WEATHER IN NEARBY STATES *****

CITY           SKY/WX    TMP DP  RH WIND       PRES   REMARKS
GLASGOW MT     CLOUDY    42  31  64 W10       29.58F
GREAT FALLS MT CLOUDY    36  32  85 S12       29.67F
CHEYENNE WY    FAIR      48  17  29 W12       29.90F
SCOTTSBLUFF NE FAIR      35  29  78 E3        29.82F
OMAHA NE       MOCLDY    27  22  81 SE10      29.86F WCI  17
DES MOINES IA  FAIR      29  21  72 S6        29.88F WCI  23
DAVENPORT IA   FAIR      31  20  63 SW15      29.94F WCI  20
CHICAGO IL     FAIR      30  18  60 SW10      29.93F WCI  21
EAU CLAIRE WI  FAIR      24  21  88 SW6       29.75F WCI  17
LA CROSSE WI   FAIR      28  20  71 S9        29.81F WCI  19
$$

  *****  SOME NATIONAL WEATHER *****

CITY           SKY/WX    TMP DP  RH WIND       PRES   REMARKS
LA GUARDIA NY  FAIR      26  12  55 W8        30.04S WCI  18
RALEIGH NC     FAIR      24  21  88 SW3       30.21F
ATLANTA GA     FAIR      28  14  55 NW8       30.29F WCI  20
NEW ORLEANS LA FAIR      30  26  85 CALM      30.40F
OKLAHOMA CITY  FAIR      26  13  57 S9        30.15F WCI  17
ALBUQUERQUE NM MOCLDY    31   9  39 SE6       30.19F
SALT LAKE CITY MOCLDY    55  28  35 S21G30    29.88F
LOS ANGELES CA FAIR      61  56  83 CALM      30.04S
BOISE ID       LGT RAIN  39  37  92 S5        29.85R
SEATTLE WA     MOCLDY    41  36  82 S9        29.79F
$$

*** WEATHER ACROSS MANITOBA...SASKATCHEWAN AND ONTARIO ***
                ***ONTARIO***

CITY           SKY/WX    TMP DP  RH WIND       PRES   REMARKS
GERALDTON      LGT SNOW  16  14  93 SE5       29.57F WCI   9
THUNDER BAY    CLOUDY    27  25  93 SE2       29.60F
SIOUX LOOKOUT  CLOUDY    21  21 100 S9        29.46F WCI  11
TORONTO        PTCLDY    21  12  68 SW6       29.88S WCI  14
BIG TROUT LK   FLURRIES   7   5  92 E6        29.52F WCI  -3
PICKLE LAKE    NOT AVBL
DRYDEN         CLOUDY    23  23 100 S12       29.45F WCI  12
KENORA         CLOUDY    23  21  93 S12       29.44F WCI  12
$$
                *** MANITOBA***

CITY           SKY/WX    TMP DP  RH WIND       PRES   REMARKS
BRANDON        CLOUDY    36  30  80 W22       29.39R
DAUPHIN        CLEAR     39  32  75 W17G26    29.28S
ISLAND LAKE    FLURRIES  16  10  79 SE12      29.35F WCI   3
PILOT MOUND      N/A     30  25  80 SW10        N/A  WCI  21
THE PAS        SNOW      12   9  85 VRB2      29.27S VSB 1/2
THOMPSON       LGT SNOW   7   1  78 NE10      29.41F WCI  -8
WINNIPEG       CLOUDY    25  21  86 S18       29.38F WCI  11
LYNN LAKE      LGT SNOW   7   5  92 E10       29.39F WCI  -8
CHURCHILL      FLURRIES   0  -4  85 E6        29.70S WCI -12
GILLAM         LGT SNOW   0  -4  85 E7        29.53F WCI -13
$$
                ***SASKATCHEWAN***

CITY           SKY/WX    TMP DP  RH WIND       PRES   REMARKS
ESTEVAN        MOCLDY    37  30  75 SW15      29.48S
KINDERSLEY     CLOUDY    32  28  86 W15G22    29.41S WCI  22
LLOYDMINSTER   CLEAR     32  23  69 W15       29.35R WCI  22
PRINCE ALBERT  CLOUDY    27  25  93 W12       29.31R WCI  16
REGINA         PTCLDY    34  27  75 W12       29.41S
YORKTON        MOCLDY    36  32  87 SW17      29.30F
N. BATTLEFORD  CLOUDY    32  27  80 NW6       29.35S
LA RONGE       FLURRIES  18  14  86 CALM      29.30R
SASKATOON      MOCLDY    30  28  93 SW6       29.33F WCI  24
SWIFT CURRENT  CLOUDY    37  27  65 W31G43    29.42F
$$
NOTE: THESE ARE AUTOMATED STATIONS WITH LIMITED QUALITY CONTROL
      "FAIR" INDICATES FEW OR NO CLOUDS BELOW 12,000 FEET WITH NO
      SIGNIFICANT WEATHER AND/OR OBSTRUCTIONS TO VISIBILITY.
      SKY/WX - SKY CONDITION AND SIGNIFICANT WEATHER.
      TMP - AIR TEMPERATURE.    DP   - DEWPOINT TEMPERATURE.
      RH  - RELATIVE HUMIDITY.  PRES - PRESSURE.
      HX  - HEAT INDEX.         WCI  - WIND CHILL INDEX.
$



USA.gov is the U.S. government's official web portal to all federal, state and local government web resources and services.